TimeEDT,TemperatureF,Dew PointF,Humidity,Sea Level PressureIn,VisibilityMPH,Wind Direction,Wind SpeedMPH,Gust SpeedMPH,PrecipitationIn,Events,Conditions,WindDirDegrees,DateUTC
12:15 AM,28.4,26.6,93,29.85,10.0,WSW,5.8,-,N/A,,Overcast,250,2013-04-14 04:15:00
12:35 AM,28.4,26.6,93,29.86,10.0,WSW,5.8,-,N/A,,Overcast,240,2013-04-14 04:35:00
12:55 AM,28.4,26.6,93,29.87,10.0,WSW,6.9,-,N/A,,Overcast,250,2013-04-14 04:55:00
1:15 AM,28.4,26.6,93,29.87,10.0,WSW,6.9,-,N/A,,Mostly Cloudy,250,2013-04-14 05:15:00
1:35 AM,28.4,26.6,93,29.88,10.0,WSW,5.8,-,N/A,,Overcast,250,2013-04-14 05:35:00
1:55 AM,28.4,28.4,100,29.88,10.0,WSW,5.8,-,N/A,,Overcast,250,2013-04-14 05:55:00
2:15 AM,28.4,26.6,93,29.88,10.0,WSW,6.9,-,N/A,,Overcast,250,2013-04-14 06:15:00
2:35 AM,28.4,28.4,100,29.89,10.0,WSW,6.9,-,N/A,,Mostly Cloudy,250,2013-04-14 06:35:00
2:55 AM,26.6,26.6,100,29.89,10.0,WSW,5.8,-,N/A,,Mostly Cloudy,250,2013-04-14 06:55:00
3:15 AM,26.6,26.6,100,29.89,10.0,WSW,4.6,-,N/A,,Overcast,240,2013-04-14 07:15:00
3:35 AM,26.6,26.6,100,29.89,10.0,WSW,6.9,-,N/A,,Overcast,240,2013-04-14 07:35:00
3:55 AM,28.4,28.4,100,29.90,10.0,WSW,8.1,-,N/A,,Overcast,250,2013-04-14 07:55:00
4:15 AM,28.4,28.4,100,29.91,10.0,WSW,5.8,-,N/A,,Overcast,250,2013-04-14 08:15:00
4:35 AM,28.4,28.4,100,29.91,10.0,WSW,6.9,-,N/A,,Overcast,250,2013-04-14 08:35:00
4:55 AM,26.6,24.8,93,29.92,10.0,WSW,5.8,-,N/A,,Mostly Cloudy,240,2013-04-14 08:55:00
5:15 AM,26.6,26.6,100,29.92,10.0,WSW,5.8,-,N/A,,Overcast,240,2013-04-14 09:15:00
5:35 AM,28.4,28.4,100,29.93,10.0,WSW,6.9,-,N/A,,Overcast,250,2013-04-14 09:35:00
5:55 AM,28.4,28.4,100,29.93,10.0,SW,4.6,-,N/A,,Overcast,230,2013-04-14 09:55:00
6:15 AM,28.4,28.4,100,29.94,3.0,WSW,4.6,-,N/A,,Overcast,240,2013-04-14 10:15:00
6:35 AM,28.4,28.4,100,29.94,4.0,WSW,3.5,-,N/A,,Overcast,250,2013-04-14 10:35:00
6:55 AM,28.4,28.4,100,29.94,8.0,WSW,4.6,-,N/A,,Overcast,240,2013-04-14 10:55:00
7:15 AM,28.4,28.4,100,29.95,10.0,SW,4.6,-,N/A,,Overcast,220,2013-04-14 11:15:00
7:35 AM,28.4,28.4,100,29.96,10.0,SW,4.6,-,N/A,,Mostly Cloudy,230,2013-04-14 11:35:00
7:55 AM,28.4,28.4,100,29.98,10.0,SW,4.6,-,N/A,,Overcast,230,2013-04-14 11:55:00
8:15 AM,28.4,28.4,100,29.99,10.0,West,5.8,-,N/A,,Overcast,260,2013-04-14 12:15:00
8:35 AM,28.4,26.6,93,30.00,10.0,WSW,5.8,-,N/A,,Overcast,250,2013-04-14 12:35:00
8:55 AM,30.2,28.4,93,30.01,10.0,West,6.9,-,N/A,,Overcast,270,2013-04-14 12:55:00
9:15 AM,30.2,30.2,100,30.02,10.0,West,6.9,-,N/A,,Overcast,270,2013-04-14 13:15:00
9:35 AM,32.0,30.2,93,30.03,10.0,West,5.8,-,N/A,,Overcast,260,2013-04-14 13:35:00
9:55 AM,33.8,30.2,87,30.03,10.0,West,4.6,-,N/A,,Mostly Cloudy,270,2013-04-14 13:55:00
10:15 AM,33.8,28.4,81,30.02,10.0,Calm,Calm,-,N/A,,Partly Cloudy,0,2013-04-14 14:15:00
10:35 AM,33.8,28.4,81,30.02,10.0,Calm,Calm,-,0.02,,Mostly Cloudy,0,2013-04-14 14:35:00
10:55 AM,33.8,28.4,81,30.02,10.0,NW,4.6,-,0.02,,Overcast,320,2013-04-14 14:55:00
11:15 AM,33.8,26.6,75,30.02,10.0,North,4.6,-,N/A,,Overcast,350,2013-04-14 15:15:00
11:35 AM,33.8,26.6,75,30.03,10.0,NNW,4.6,-,N/A,,Overcast,340,2013-04-14 15:35:00
11:55 AM,35.6,24.8,65,30.03,10.0,NNE,3.5,-,N/A,,Scattered Clouds,20,2013-04-14 15:55:00
12:15 PM,35.6,24.8,65,30.04,10.0,North,5.8,-,N/A,,Mostly Cloudy,360,2013-04-14 16:15:00
12:35 PM,35.6,24.8,65,30.03,10.0,North,6.9,-,N/A,,Mostly Cloudy,350,2013-04-14 16:35:00
12:55 PM,35.6,24.8,65,30.02,10.0,North,4.6,-,N/A,,Mostly Cloudy,350,2013-04-14 16:55:00
1:15 PM,35.6,24.8,65,30.03,10.0,North,6.9,-,N/A,,Overcast,360,2013-04-14 17:15:00
1:35 PM,37.4,24.8,60,30.03,10.0,Calm,Calm,-,N/A,,Overcast,0,2013-04-14 17:35:00
1:55 PM,37.4,24.8,60,30.04,10.0,WNW,3.5,-,N/A,,Mostly Cloudy,290,2013-04-14 17:55:00
2:15 PM,37.4,26.6,65,30.05,10.0,WSW,3.5,-,N/A,,Overcast,240,2013-04-14 18:15:00
2:35 PM,37.4,26.6,65,30.06,10.0,SE,3.5,-,N/A,,Overcast,130,2013-04-14 18:35:00
2:55 PM,37.4,26.6,65,30.06,10.0,Calm,Calm,-,N/A,,Scattered Clouds,0,2013-04-14 18:55:00
3:15 PM,37.4,26.6,65,30.06,10.0,Calm,Calm,-,N/A,,Mostly Cloudy,0,2013-04-14 19:15:00
3:35 PM,39.2,26.6,61,30.06,10.0,Calm,Calm,-,N/A,,Mostly Cloudy,0,2013-04-14 19:35:00
3:55 PM,39.2,26.6,61,30.05,10.0,Calm,Calm,-,N/A,,Mostly Cloudy,0,2013-04-14 19:55:00
4:15 PM,39.2,26.6,61,30.05,10.0,Calm,Calm,-,N/A,,Partly Cloudy,0,2013-04-14 20:15:00
4:35 PM,39.2,26.6,61,30.04,10.0,Calm,Calm,-,N/A,,Partly Cloudy,0,2013-04-14 20:35:00
4:55 PM,39.2,26.6,61,30.03,10.0,SSE,10.4,-,N/A,,Scattered Clouds,150,2013-04-14 20:55:00
5:15 PM,39.2,26.6,61,30.03,10.0,ESE,6.9,-,N/A,,Partly Cloudy,120,2013-04-14 21:15:00
5:35 PM,39.2,26.6,61,30.02,10.0,ESE,10.4,-,N/A,,Clear,120,2013-04-14 21:35:00
5:55 PM,39.2,26.6,61,30.01,10.0,East,10.4,-,N/A,,Clear,90,2013-04-14 21:55:00
6:15 PM,39.2,28.4,65,30.02,10.0,East,10.4,-,N/A,,Clear,80,2013-04-14 22:15:00
6:35 PM,39.2,26.6,61,30.01,10.0,East,11.5,17.3,N/A,,Mostly Cloudy,100,2013-04-14 22:35:00
6:55 PM,37.4,26.6,65,30.01,10.0,East,9.2,-,N/A,,Overcast,100,2013-04-14 22:55:00
7:15 PM,37.4,26.6,65,30.00,10.0,East,12.7,-,N/A,,Overcast,100,2013-04-14 23:15:00
7:35 PM,37.4,24.8,60,30.00,10.0,East,12.7,-,N/A,,Overcast,100,2013-04-14 23:35:00
7:55 PM,37.4,26.6,65,30.00,10.0,ESE,15.0,19.6,N/A,,Overcast,110,2013-04-14 23:55:00
8:15 PM,37.4,26.6,65,30.00,10.0,ESE,13.8,-,N/A,,Overcast,110,2013-04-15 00:15:00
8:35 PM,35.6,28.4,75,30.00,10.0,SE,15.0,-,N/A,,Overcast,140,2013-04-15 00:35:00
8:55 PM,35.6,28.4,75,30.01,10.0,SE,16.1,-,N/A,,Overcast,140,2013-04-15 00:55:00
9:15 PM,33.8,30.2,87,30.02,10.0,SE,12.7,-,N/A,,Overcast,130,2013-04-15 01:15:00
9:35 PM,33.8,28.4,81,30.02,10.0,ESE,12.7,-,N/A,,Overcast,120,2013-04-15 01:35:00
9:55 PM,33.8,28.4,81,30.04,10.0,SE,12.7,-,N/A,,Overcast,130,2013-04-15 01:55:00
10:15 PM,33.8,28.4,81,30.04,10.0,ESE,12.7,-,N/A,,Overcast,120,2013-04-15 02:15:00
10:35 PM,33.8,28.4,81,30.03,10.0,ESE,11.5,-,N/A,,Overcast,120,2013-04-15 02:35:00
10:55 PM,33.8,28.4,81,30.02,10.0,ESE,12.7,-,N/A,,Overcast,110,2013-04-15 02:55:00
11:15 PM,33.8,28.4,81,30.02,10.0,ESE,12.7,-,N/A,,Overcast,120,2013-04-15 03:15:00
11:35 PM,33.8,28.4,81,30.00,10.0,ESE,13.8,18.4,N/A,,Overcast,110,2013-04-15 03:35:00
11:55 PM,33.8,28.4,81,30.01,10.0,ESE,11.5,-,N/A,,Overcast,110,2013-04-15 03:55:00